Wind_Speed
19 21 21 19 17 16 16 17 18 18 19 21 21 21 20 20 19 19 20 20 20 21 22 22 21 21 21 21 21 20 19 19 17 16 15 14 14 14 14 15 14 13 12 11 10 9 8 7 5 4 5 3 4 6 6 6 6 6 5 5 5 5 5
19 20 21 21 19 17 17 18 19 20 21 22 23 22 22 21 20 19 20 20 21 22 22 22 22 22 22 22 21 20 19 18 17 16 16 14 14 15 15 15 15 14 13 11 9 8 7 6 4 3 4 3 3 5 6 6 6 6 5 4 5 5 5
20 20 20 21 20 19 19 19 20 23 23 22 23 23 23 22 20 20 21 21 22 23 23 23 23 23 23 22 21 20 19 17 17 17 16 15 16 16 16 16 15 14 13 12 11 10 9 8 6 3 3 4 5 5 6 7 7 7 6 5 6 6 6
21 20 20 21 20 20 21 21 22 23 22 21 22 22 22 21 19 20 22 22 23 24 24 24 23 23 23 22 22 21 19 18 18 18 17 17 17 17 16 15 14 13 13 14 13 12 10 9 8 6 5 5 7 7 7 8 8 8 7 6 6 7 6
22 21 21 21 22 22 23 24 24 22 21 21 21 21 21 22 21 21 23 24 25 25 25 24 23 23 23 23 22 21 20 19 19 19 18 17 17 17 16 14 14 14 14 14 13 12 10 10 9 7 6 6 7 8 8 8 8 8 7 6 6 6 6
25 25 24 23 24 25 26 27 24 22 21 22 21 20 20 22 23 23 24 26 27 26 25 24 24 24 24 24 24 21 20 20 19 19 19 18 18 18 17 16 16 15 15 14 13 12 11 9 8 7 7 6 7 8 8 8 7 7 7 7 6 6 5
30 29 27 25 25 27 29 28 25 22 22 21 21 21 20 22 24 25 26 27 27 26 25 25 26 26 25 25 25 22 20 20 20 20 19 18 19 18 17 17 17 16 15 15 14 13 11 9 8 8 8 7 7 8 8 7 6 6 7 8 7 6 6
33 31 28 25 24 27 29 28 26 24 22 21 22 22 22 23 25 26 27 27 26 26 26 26 27 27 25 24 24 21 20 20 20 20 19 19 19 18 17 17 17 16 16 15 14 13 12 11 10 10 9 8 8 8 8 7 6 6 7 7 7 6 6
32 32 28 24 23 26 28 28 27 26 24 22 22 22 24 25 25 25 26 27 28 28 27 28 28 26 25 25 24 22 21 20 20 19 18 18 19 18 18 18 17 16 16 16 15 14 14 13 12 11 11 10 9 9 8 8 7 8 8 7 6 6 6
33 31 28 25 25 26 26 26 26 25 25 23 21 21 23 24 23 24 25 26 28 27 27 27 26 24 25 26 25 23 21 19 19 19 18 18 19 19 18 18 17 17 17 16 16 15 15 14 13 12 11 11 10 10 9 10 10 10 10 8 8 7 6
34 31 29 28 26 25 26 28 27 26 25 24 21 20 21 22 23 22 23 26 26 26 26 25 24 24 25 26 25 22 20 20 20 19 19 19 19 19 18 18 18 18 17 16 16 16 15 14 14 13 12 12 12 11 10 11 12 12 10 9 9 9 8
36 32 29 28 26 22 25 29 28 27 26 24 22 21 20 22 22 21 22 25 25 25 25 25 24 25 25 25 25 22 21 20 20 20 20 20 19 18 18 17 17 17 16 16 16 16 15 15 14 13 13 13 13 12 12 12 12 12 12 11 11 11 10
36 32 29 28 25 21 22 26 28 28 27 25 23 22 21 21 22 22 22 24 24 25 26 24 23 23 24 25 25 23 21 21 21 20 19 19 18 17 17 17 17 17 16 16 16 16 15 15 15 14 15 14 13 13 12 12 13 13 13 12 12 12 11
27 27 26 26 24 21 22 26 28 30 29 27 25 23 22 21 22 23 23 23 24 26 26 24 22 23 24 26 26 23 22 21 20 19 18 18 17 17 17 17 17 16 16 16 16 16 15 16 16 16 16 15 14 13 13 13 14 15 15 13 11 11 11
21 23 23 23 24 23 25 27 28 31 32 30 28 25 23 21 22 24 24 24 26 27 26 24 24 24 23 24 25 23 21 20 19 18 18 17 17 18 17 17 17 17 16 16 16 16 16 16 17 17 17 16 14 14 14 15 15 16 16 14 12 12 12
21 23 23 25 26 27 27 28 29 31 33 32 30 26 23 22 23 24 24 25 27 27 26 25 23 23 22 23 24 22 20 19 18 18 18 18 18 18 18 18 17 17 17 17 17 17 17 17 17 18 18 17 15 15 15 15 16 17 17 16 13 13 14
21 22 24 27 28 29 30 29 29 30 31 32 30 27 24 23 23 25 25 26 27 26 25 24 23 22 21 23 24 22 20 19 19 19 19 19 19 19 18 18 18 18 18 17 17 17 17 18 18 18 18 16 15 16 16 16 16 17 18 16 14 14 15
21 22 24 27 28 29 30 30 30 30 30 31 31 28 26 25 24 26 26 26 27 26 26 25 22 21 22 23 23 21 19 20 20 19 19 19 20 19 19 18 18 18 18 17 17 17 18 18 18 18 18 16 16 17 16 16 17 17 18 17 15 15 15
24 25 25 27 28 29 29 29 30 29 29 31 32 31 29 26 26 26 26 26 28 27 27 25 23 22 23 23 23 21 20 20 20 20 20 19 19 19 19 19 19 18 17 17 17 17 17 17 17 17 17 17 17 17 17 17 18 18 18 18 17 16 16
28 28 28 27 29 30 30 29 29 28 28 29 32 33 31 28 27 27 26 26 27 29 29 27 24 23 24 24 22 20 19 19 19 19 19 18 18 18 19 19 18 18 17 17 17 17 17 16 16 17 18 18 18 17 17 18 19 19 19 18 18 17 18
30 31 30 29 29 29 29 28 28 28 29 29 31 33 33 30 27 27 26 26 28 31 32 28 25 25 24 22 20 18 17 17 17 18 18 18 18 19 19 19 18 18 18 18 17 17 16 16 15 16 18 19 18 17 17 17 19 20 20 19 19 19 20
28 30 31 30 29 28 28 28 28 29 29 30 31 32 32 31 29 27 27 28 30 33 33 29 25 24 23 20 17 17 16 16 17 17 17 18 18 19 18 19 18 19 19 18 18 17 17 16 15 15 17 18 18 18 18 18 18 20 23 23 22 21 21
27 28 29 29 29 28 28 28 29 29 29 29 31 31 29 30 30 27 28 30 31 33 32 27 23 22 20 17 16 15 16 16 16 17 17 18 18 18 18 18 18 19 19 19 18 18 18 18 16 15 16 16 17 18 18 18 18 19 22 24 22 21 21
27 27 27 27 28 27 27 28 28 28 28 28 30 29 26 27 28 28 28 29 30 32 30 25 22 21 18 17 16 15 15 15 16 16 16 16 17 17 17 17 17 17 18 18 18 18 18 18 18 17 16 15 15 16 17 18 19 18 20 22 21 19 18
27 27 26 25 25 25 24 25 26 27 27 27 27 27 26 27 27 28 30 30 31 30 27 24 22 20 18 17 16 15 16 16 16 15 15 14 14 14 14 14 15 15 15 15 16 16 17 18 19 19 18 16 15 16 16 18 19 18 19 21 21 18 16
24 24 24 24 24 23 22 22 23 24 25 26 27 26 27 28 29 31 33 33 32 29 26 24 22 20 18 17 17 16 17 16 15 14 13 13 12 12 12 12 13 13 14 14 14 14 15 16 17 19 19 17 16 16 17 17 18 17 16 18 19 17 16
20 20 21 22 22 21 20 21 21 21 22 25 26 27 29 30 32 34 35 33 31 29 26 24 21 20 19 18 18 17 16 15 14 13 13 12 12 12 12 12 13 13 14 14 14 14 14 14 16 17 18 18 17 17 17 17 17 16 15 16 18 18 17
17 17 18 19 20 19 19 19 19 19 19 22 26 28 30 32 33 35 36 34 31 29 27 23 21 20 19 18 18 17 15 14 14 13 13 13 13 13 13 13 13 13 15 16 15 15 15 15 15 16 17 17 17 17 17 17 17 17 16 17 18 18 18
14 14 15 15 16 16 17 18 17 15 17 22 25 25 29 34 34 34 35 33 30 28 27 24 21 21 20 19 18 17 16 15 14 14 14 14 14 14 14 14 14 14 15 16 16 16 15 15 15 15 15 16 16 17 17 17 17 17 18 18 19 19 19
13 14 15 15 16 16 16 16 13 13 19 22 22 23 31 36 35 34 34 32 29 28 26 25 23 22 21 20 19 18 17 16 15 15 16 16 16 16 16 16 16 16 16 16 16 16 14 13 13 13 14 15 15 16 17 17 18 19 20 20 19 19 20
15 13 13 16 21 21 18 15 14 17 19 20 19 24 32 35 34 33 33 31 29 27 27 25 24 23 22 21 20 19 18 17 16 17 17 17 17 17 17 17 17 17 17 16 16 15 13 12 12 12 13 14 14 15 17 18 18 19 19 19 19 19 21
17 13 11 15 18 14 8 9 17 18 15 15 21 26 30 34 35 31 30 29 27 26 27 26 24 23 22 22 21 20 18 18 18 18 18 19 19 20 19 19 18 18 17 15 15 14 14 14 15 15 14 14 14 15 16 17 17 18 17 17 18 20 21
16 15 14 15 15 11 5 5 16 19 15 17 24 28 31 35 35 30 27 26 25 26 27 26 25 24 23 23 22 21 19 19 19 19 20 21 22 22 21 19 17 17 16 15 14 13 14 15 16 17 17 17 17 17 17 16 16 17 17 18 19 20 21
13 14 12 13 15 14 13 8 10 18 20 22 24 26 29 32 31 29 27 26 27 28 28 27 26 25 24 24 22 21 20 20 20 21 22 23 22 21 18 17 16 16 16 17 16 16 16 16 16 16 17 16 16 16 16 16 16 17 18 19 20 21 22
13 12 10 10 12 13 13 13 11 13 19 21 20 21 25 29 32 33 31 29 29 29 28 27 27 26 25 24 23 22 21 21 22 22 21 21 19 17 16 16 16 16 16 17 17 17 17 17 15 15 15 14 14 15 16 17 18 19 20 21 22 24 25
14 12 9 8 9 10 12 14 13 13 17 20 22 24 25 29 33 34 31 28 27 27 26 26 25 24 24 23 22 22 22 22 23 23 20 18 17 16 17 17 17 16 16 16 16 17 17 16 16 15 15 15 15 16 17 19 20 21 23 24 25 26 27
10 8 6 7 9 9 11 15 18 18 18 20 24 27 27 28 30 31 29 27 27 27 25 24 24 23 23 23 23 23 23 23 23 21 19 17 17 18 18 17 17 17 16 16 16 16 16 16 15 15 16 16 17 19 20 21 22 23 24 25 26 27 28
Wind_Direction
242 236 229 226 229 236 242 244 242 241 238 237 238 237 235 232 231 233 234 234 232 228 228 228 228 230 230 231 233 233 236 240 242 240 238 238 241 245 246 249 250 250 251 249 250 255 264 271 280 285 281 271 251 236 223 211 210 212 206 194 187 191 197
237 232 227 224 229 234 239 241 241 239 234 232 234 235 234 231 230 233 232 231 231 231 230 228 227 228 228 228 229 230 234 240 242 239 237 236 238 240 241 245 247 247 247 244 241 247 254 251 249 274 273 239 221 232 226 212 212 214 208 200 197 203 212
228 228 228 228 233 237 239 238 240 240 234 231 234 236 237 235 231 232 233 232 232 231 229 226 225 226 226 225 227 228 231 237 240 238 235 235 237 238 240 243 245 245 244 237 230 234 241 233 216 217 245 224 205 210 218 217 219 218 210 204 205 213 221
227 230 232 232 237 242 242 240 241 244 241 237 240 244 247 245 240 236 235 234 233 231 228 224 222 224 223 222 227 229 229 234 238 237 234 234 235 237 239 241 241 240 239 235 232 235 240 234 219 203 202 217 214 206 209 217 222 222 218 215 217 220 221
228 235 239 240 244 247 247 243 242 246 248 247 245 247 251 253 248 241 238 237 234 230 227 224 222 222 222 223 226 230 230 230 234 235 234 233 235 236 236 234 235 236 236 237 238 240 242 242 237 218 204 215 221 212 210 220 228 230 227 224 226 228 223
233 237 239 242 247 250 250 247 244 243 246 248 248 248 249 251 249 244 240 238 234 230 227 226 225 223 222 224 226 227 227 227 229 232 233 232 233 234 231 230 231 233 234 235 236 238 240 244 245 231 216 217 222 218 214 218 229 235 232 229 231 232 226
240 241 238 239 244 251 253 253 253 252 248 245 245 245 245 247 250 249 245 242 239 234 229 228 228 225 223 226 227 224 223 225 228 229 231 230 230 231 230 231 233 232 232 233 233 234 235 235 234 227 219 218 222 224 223 222 226 234 236 235 233 225 216
244 249 247 244 247 254 258 261 266 267 262 253 246 243 241 240 243 246 246 245 244 239 234 231 229 227 226 229 231 227 222 223 227 228 229 229 227 228 229 232 235 234 233 234 233 232 231 229 226 223 221 224 226 227 228 227 228 233 236 238 239 231 219
246 253 254 253 256 259 262 268 270 267 265 263 256 248 245 241 240 242 243 244 243 240 239 237 231 226 226 227 228 226 222 222 227 228 227 227 225 225 228 231 234 235 234 235 235 234 231 230 230 227 225 227 232 232 228 224 223 227 232 230 228 230 232
245 250 253 256 258 258 261 267 266 264 269 273 264 251 248 248 246 243 242 243 244 241 238 238 236 232 230 228 222 219 219 223 225 226 225 225 225 225 227 229 231 234 234 235 235 235 233 233 235 234 229 226 228 231 230 229 228 231 234 231 222 219 228
240 243 245 252 258 256 261 264 258 258 269 274 267 255 250 251 250 246 242 242 244 241 236 233 237 238 235 232 225 216 216 221 222 221 222 224 225 225 226 226 228 233 235 235 235 236 235 237 239 236 228 223 223 225 228 233 237 238 237 233 229 222 221
237 239 240 248 257 257 261 261 251 252 265 271 270 264 256 252 251 248 244 242 241 239 236 233 234 238 237 233 227 217 214 218 218 217 219 222 223 224 225 225 228 232 234 234 235 237 239 242 244 239 230 223 223 224 226 231 237 240 238 233 231 230 226
232 236 238 244 251 250 257 259 251 251 261 267 269 268 262 255 250 248 245 242 239 237 236 233 231 234 234 229 224 216 212 215 217 216 218 220 221 224 226 226 229 231 231 231 232 236 240 244 246 243 235 229 227 226 227 229 233 239 241 236 235 238 238
230 235 238 241 244 243 250 256 254 254 257 261 265 267 266 259 251 249 246 241 238 234 231 230 229 228 226 223 221 216 212 213 216 219 221 221 223 226 227 228 230 231 230 229 230 235 239 243 246 244 241 237 233 231 230 229 232 239 243 240 237 241 239
240 240 240 241 242 243 248 253 255 256 257 257 259 263 265 260 254 253 249 241 237 234 229 226 224 219 217 220 221 218 215 216 218 223 226 225 226 228 228 229 230 230 230 229 230 234 238 242 245 246 245 243 239 237 235 231 233 240 244 241 235 234 235
258 252 249 247 246 249 252 254 256 257 257 255 254 257 262 260 254 253 251 243 237 236 233 225 216 210 212 220 223 219 219 222 223 227 229 229 230 231 230 231 231 231 230 230 230 233 238 242 245 246 247 246 245 244 241 236 236 240 242 239 233 232 234
271 266 261 258 256 256 258 259 258 257 256 254 252 253 257 258 253 249 248 243 239 238 235 222 209 206 212 222 225 222 221 225 228 230 231 231 231 232 232 232 232 232 233 233 233 233 237 240 243 245 246 247 246 246 242 239 238 238 240 239 234 233 236
268 268 268 268 266 264 262 261 259 257 257 255 250 250 254 255 251 247 244 242 241 238 229 216 207 208 214 224 228 226 224 226 229 229 230 231 232 233 234 233 234 235 236 237 237 238 238 239 240 243 245 244 243 242 240 237 235 235 237 238 234 234 238
266 263 263 265 267 267 266 264 263 261 261 256 251 250 251 252 250 247 243 241 240 234 220 211 210 211 215 222 226 227 227 227 227 226 226 228 230 232 234 234 235 237 238 238 238 238 237 236 238 241 243 244 243 241 237 235 235 234 233 234 234 235 238
270 266 264 263 265 268 269 268 267 265 263 258 253 251 250 250 250 246 241 238 234 225 215 209 209 212 216 220 221 222 224 224 224 223 223 225 228 230 231 233 235 236 236 236 236 238 238 237 238 240 242 243 244 242 237 234 237 236 230 227 229 232 237
272 269 267 265 265 267 268 268 267 265 262 260 256 252 248 248 247 243 239 232 225 221 215 207 205 211 216 218 219 218 219 219 220 221 222 224 227 228 229 231 233 234 235 237 238 241 243 242 239 239 242 243 244 245 242 238 237 237 231 223 221 227 235
275 270 268 265 264 264 264 265 265 264 263 260 256 251 247 244 241 237 234 228 223 220 213 203 203 210 213 213 215 216 216 216 218 219 222 226 228 230 231 233 233 235 237 239 240 242 245 245 241 238 240 242 244 245 244 241 238 237 235 227 216 221 233
279 273 268 264 263 262 262 263 264 263 264 260 252 246 244 242 235 228 226 225 222 215 207 202 203 206 206 207 208 210 213 215 217 219 222 225 228 231 233 235 237 238 240 241 241 241 243 245 244 240 241 242 242 242 243 245 244 241 243 237 220 218 230
282 276 270 265 263 261 261 263 263 261 260 256 249 242 238 238 229 219 218 219 214 208 202 199 199 197 197 199 198 200 208 213 215 217 219 223 229 232 234 236 239 241 242 242 242 242 243 245 246 245 246 244 242 243 245 249 250 247 247 242 227 221 230
285 277 273 270 265 262 262 263 263 262 257 251 247 237 230 229 222 214 213 208 201 200 198 195 193 191 190 191 191 196 204 210 213 215 217 222 228 233 236 239 243 245 245 244 244 245 246 248 247 247 249 247 244 248 250 252 253 251 248 242 230 224 233
292 282 276 273 270 268 267 266 266 264 254 246 241 231 222 220 215 210 207 200 196 196 193 190 189 187 186 189 194 199 204 208 211 213 215 220 225 231 237 242 247 251 252 250 249 249 249 249 247 245 246 246 247 250 253 254 253 251 250 244 232 227 237
299 288 278 274 275 273 273 275 269 258 250 245 234 219 212 213 211 206 200 193 192 193 190 187 187 184 186 192 196 200 202 205 208 212 215 217 222 230 238 244 249 253 255 255 254 253 251 248 244 241 241 242 244 248 250 251 250 246 243 240 233 232 240
304 294 281 274 275 275 276 276 264 250 244 234 220 210 207 207 204 199 195 190 191 192 188 184 182 183 187 192 194 197 202 205 210 216 221 224 230 238 245 251 254 255 254 253 252 250 249 246 242 239 238 239 240 243 244 245 244 240 238 237 235 238 245
304 302 298 285 278 279 277 271 262 249 231 223 221 214 204 199 195 193 192 189 188 189 185 182 182 185 189 193 198 202 207 212 217 223 229 235 241 248 256 261 263 262 258 254 251 247 245 243 240 238 239 241 243 243 244 244 242 238 235 235 238 243 249
315 316 323 313 300 299 288 270 255 229 218 226 231 212 194 192 192 191 189 186 184 184 184 183 185 190 194 198 204 209 213 219 225 230 235 240 246 252 258 263 267 269 267 260 254 249 245 242 240 239 241 244 245 244 245 246 243 237 232 234 239 246 252
343 332 331 320 310 308 296 265 230 216 225 233 219 195 190 192 192 188 187 185 184 186 186 187 191 197 201 205 210 215 221 226 232 236 240 244 248 252 256 260 265 268 267 261 253 246 240 236 237 239 241 243 242 242 245 247 245 239 235 238 244 251 257
357 348 337 332 329 324 301 230 207 213 236 232 203 190 188 187 185 185 186 186 187 191 192 194 199 204 208 212 216 222 227 233 237 241 245 248 252 254 256 259 260 260 259 253 246 240 233 230 230 231 234 238 240 242 246 248 248 247 248 252 255 259 263
357 354 337 330 335 339 333 212 201 206 212 204 198 197 193 187 182 183 187 189 192 196 197 200 206 210 214 218 221 225 230 235 239 244 249 253 255 256 256 254 252 251 248 241 238 239 240 239 236 234 236 239 242 245 247 248 250 252 256 259 261 263 265
343 350 333 307 304 313 320 304 236 213 198 189 191 195 197 195 191 189 194 197 199 200 203 205 209 213 218 222 224 228 233 236 240 246 251 253 252 250 247 242 239 240 241 237 236 239 241 242 241 239 239 241 244 247 250 253 256 258 261 265 267 269 270
311 329 332 304 286 289 300 304 280 228 203 196 194 191 194 199 200 200 202 203 203 206 209 211 214 219 222 224 227 232 237 242 247 250 248 245 242 236 232 231 229 231 235 236 236 236 237 238 240 239 240 242 246 252 256 261 265 268 271 272 273 273 274
294 306 326 324 299 276 269 272 266 236 215 212 211 207 206 207 207 207 208 207 209 213 215 217 221 224 225 228 232 235 241 249 253 248 236 227 227 225 223 225 226 228 231 233 232 233 234 235 237 240 243 247 251 255 259 263 266 268 269 271 271 272 274
284 289 310 321 314 299 273 257 245 231 224 224 222 221 223 222 217 215 215 215 216 219 222 226 229 229 230 232 234 238 245 249 245 235 221 217 224 227 224 225 227 227 228 230 230 232 234 237 241 245 249 253 255 257 259 262 264 266 268 270 272 274 276
Height
3126 3126 3127 3128 3129 3130 3131 3132 3133 3133 3134 3135 3136 3137 3137 3138 3138 3139 3141 3142 3143 3144 3146 3148 3150 3151 3151 3152 3152 3153 3155 3157 3158 3158 3159 3159 3160 3161 3162 3163 3164 3164 3164 3165 3166 3166 3167 3168 3168 3168 3168 3168 3168 3169 3169 3170 3170 3171 3171 3172 3173 3174 3174
3125 3125 3126 3126 3127 3127 3128 3129 3130 3130 3130 3132 3133 3133 3133 3134 3135 3137 3138 3139 3140 3142 3144 3146 3148 3149 3149 3150 3151 3152 3154 3155 3156 3157 3157 3158 3159 3160 3161 3162 3162 3162 3163 3164 3165 3165 3166 3167 3167 3167 3168 3168 3168 3168 3169 3169 3170 3170 3171 3172 3172 3173 3174
3123 3124 3124 3125 3125 3126 3126 3127 3127 3126 3127 3129 3130 3130 3130 3130 3132 3134 3135 3137 3138 3140 3141 3144 3145 3147 3148 3149 3150 3150 3151 3153 3154 3155 3156 3157 3157 3159 3160 3160 3161 3161 3162 3162 3163 3163 3164 3165 3166 3166 3167 3167 3167 3168 3168 3169 3169 3170 3170 3171 3172 3173 3173
3123 3123 3124 3124 3124 3125 3125 3125 3125 3125 3127 3129 3130 3130 3130 3130 3131 3132 3133 3135 3136 3137 3139 3141 3143 3144 3146 3147 3148 3148 3149 3150 3152 3153 3154 3155 3156 3157 3158 3159 3160 3160 3160 3161 3161 3162 3163 3164 3164 3165 3166 3166 3166 3167 3167 3168 3169 3169 3170 3171 3171 3172 3173
3122 3123 3124 3124 3123 3123 3124 3123 3122 3125 3127 3128 3128 3129 3129 3130 3130 3131 3132 3133 3134 3135 3137 3139 3141 3142 3144 3145 3145 3146 3148 3149 3150 3151 3152 3153 3154 3156 3157 3157 3158 3158 3159 3159 3160 3161 3162 3162 3163 3164 3164 3165 3165 3166 3166 3167 3168 3169 3170 3170 3171 3171 3172
3118 3119 3120 3121 3122 3122 3121 3120 3120 3122 3125 3125 3126 3127 3128 3128 3129 3129 3130 3130 3131 3133 3135 3137 3139 3140 3141 3142 3142 3143 3145 3147 3148 3149 3150 3152 3153 3154 3155 3156 3156 3157 3158 3158 3159 3160 3160 3161 3162 3163 3163 3164 3164 3165 3166 3167 3167 3168 3169 3170 3170 3171 3171
3113 3113 3114 3116 3118 3119 3119 3120 3121 3122 3122 3122 3123 3124 3125 3126 3126 3127 3128 3128 3130 3132 3134 3136 3137 3138 3138 3138 3139 3140 3142 3145 3146 3147 3149 3150 3151 3152 3153 3154 3155 3156 3156 3157 3158 3158 3159 3160 3161 3162 3162 3163 3163 3164 3165 3166 3167 3168 3168 3169 3170 3170 3170
3111 3111 3112 3114 3116 3118 3119 3120 3122 3122 3121 3120 3119 3119 3120 3121 3122 3123 3125 3128 3129 3131 3132 3134 3135 3136 3136 3137 3138 3139 3140 3142 3144 3145 3147 3148 3149 3151 3152 3153 3153 3154 3155 3156 3156 3157 3158 3158 3159 3160 3161 3162 3162 3163 3164 3165 3166 3167 3167 3168 3169 3169 3169
3111 3111 3113 3115 3116 3117 3118 3119 3120 3120 3119 3119 3117 3116 3116 3116 3117 3120 3123 3125 3127 3128 3130 3131 3132 3134 3135 3136 3137 3138 3138 3140 3142 3144 3145 3146 3148 3149 3150 3151 3152 3153 3154 3154 3155 3155 3156 3157 3158 3159 3160 3161 3161 3162 3162 3163 3164 3165 3165 3166 3167 3168 3168
3110 3111 3113 3113 3113 3114 3115 3117 3117 3117 3118 3118 3118 3116 3115 3114 3115 3119 3122 3123 3124 3125 3127 3128 3130 3132 3133 3134 3135 3136 3137 3139 3140 3142 3143 3144 3146 3147 3148 3149 3150 3151 3152 3152 3153 3154 3154 3155 3156 3157 3159 3159 3160 3161 3161 3162 3162 3163 3164 3165 3165 3166 3167
3107 3109 3111 3111 3111 3112 3114 3115 3116 3116 3116 3117 3117 3116 3114 3112 3114 3118 3120 3120 3121 3123 3125 3126 3127 3129 3132 3133 3133 3135 3136 3137 3139 3140 3141 3143 3144 3145 3146 3147 3148 3149 3150 3151 3151 3152 3153 3154 3155 3156 3157 3158 3159 3159 3160 3161 3161 3161 3162 3163 3164 3165 3165
3104 3106 3109 3109 3110 3111 3112 3112 3114 3114 3115 3115 3115 3114 3112 3111 3112 3115 3117 3118 3120 3121 3123 3124 3125 3127 3130 3131 3133 3133 3134 3135 3137 3138 3139 3141 3142 3143 3144 3146 3147 3147 3148 3149 3150 3150 3151 3152 3153 3154 3155 3156 3157 3158 3159 3160 3160 3160 3161 3162 3162 3163 3164
3101 3104 3106 3107 3108 3109 3109 3110 3111 3112 3113 3114 3113 3113 3112 3110 3111 3113 3115 3116 3118 3120 3121 3122 3124 3126 3128 3129 3130 3131 3131 3133 3135 3136 3137 3139 3140 3141 3143 3144 3145 3146 3146 3147 3148 3149 3149 3150 3151 3152 3153 3154 3155 3156 3158 3158 3158 3158 3159 3160 3161 3162 3163
3099 3102 3104 3104 3105 3107 3107 3107 3108 3109 3110 3111 3112 3111 3111 3110 3110 3111 3113 3114 3116 3118 3119 3120 3122 3123 3125 3126 3127 3127 3128 3130 3132 3134 3136 3137 3139 3140 3141 3142 3143 3144 3145 3145 3146 3147 3148 3149 3149 3150 3151 3152 3154 3155 3156 3156 3157 3157 3158 3159 3160 3161 3161
3098 3100 3102 3102 3102 3102 3103 3104 3106 3107 3107 3108 3109 3110 3109 3109 3109 3110 3111 3113 3114 3116 3117 3118 3119 3121 3122 3124 3125 3125 3125 3128 3130 3132 3134 3135 3137 3138 3139 3140 3141 3142 3143 3143 3144 3145 3146 3147 3147 3148 3149 3150 3152 3153 3154 3155 3155 3156 3156 3157 3158 3159 3160
3096 3097 3098 3099 3098 3099 3101 3103 3104 3104 3104 3105 3106 3107 3107 3107 3107 3108 3109 3111 3112 3114 3115 3116 3116 3118 3120 3123 3124 3123 3124 3127 3129 3130 3132 3133 3134 3136 3137 3138 3139 3140 3140 3141 3142 3143 3144 3145 3146 3146 3147 3148 3150 3151 3152 3153 3154 3155 3155 3155 3156 3157 3158
3095 3095 3095 3096 3097 3098 3099 3101 3102 3101 3101 3101 3102 3104 3104 3104 3105 3106 3107 3109 3110 3112 3113 3114 3114 3116 3119 3121 3122 3121 3123 3125 3127 3128 3130 3131 3132 3134 3135 3136 3137 3137 3138 3139 3140 3141 3142 3143 3144 3144 3145 3147 3148 3149 3150 3151 3152 3153 3153 3153 3154 3155 3156
3094 3093 3093 3092 3093 3094 3095 3096 3097 3098 3098 3098 3098 3100 3101 3101 3102 3103 3105 3106 3108 3110 3111 3112 3113 3114 3117 3118 3118 3119 3121 3123 3125 3126 3128 3129 3130 3132 3133 3134 3134 3135 3136 3137 3138 3139 3140 3141 3142 3142 3143 3145 3146 3147 3148 3149 3150 3150 3151 3152 3152 3153 3154
3090 3090 3090 3089 3088 3089 3090 3091 3093 3094 3095 3094 3094 3095 3097 3098 3099 3100 3102 3104 3105 3107 3109 3110 3111 3112 3114 3115 3116 3117 3119 3121 3122 3124 3126 3127 3128 3130 3130 3131 3132 3133 3134 3135 3136 3137 3138 3139 3140 3140 3141 3142 3143 3144 3146 3147 3148 3148 3149 3149 3150 3151 3152
3085 3085 3085 3085 3084 3085 3086 3087 3088 3090 3090 3090 3090 3091 3093 3094 3095 3097 3099 3100 3102 3104 3106 3107 3109 3110 3112 3113 3114 3115 3117 3119 3120 3122 3123 3125 3126 3127 3128 3129 3130 3131 3132 3133 3134 3135 3136 3137 3138 3139 3139 3140 3141 3142 3143 3145 3146 3146 3146 3147 3148 3149 3150
3080 3080 3080 3081 3081 3081 3081 3082 3084 3085 3085 3086 3086 3087 3089 3090 3092 3093 3095 3097 3099 3101 3103 3105 3106 3108 3110 3111 3112 3113 3115 3116 3118 3120 3121 3123 3124 3125 3126 3127 3128 3129 3130 3131 3132 3133 3134 3135 3136 3137 3137 3138 3139 3140 3141 3142 3143 3144 3145 3145 3146 3147 3148
3076 3075 3075 3076 3076 3077 3078 3078 3079 3080 3081 3082 3082 3083 3085 3086 3087 3090 3092 3093 3095 3098 3100 3102 3104 3106 3107 3108 3110 3111 3113 3114 3116 3118 3120 3121 3122 3123 3125 3125 3126 3127 3128 3129 3130 3132 3133 3133 3134 3136 3136 3136 3137 3138 3139 3140 3141 3142 3143 3143 3143 3145 3146
3071 3071 3071 3071 3072 3074 3074 3075 3075 3075 3077 3078 3078 3078 3080 3082 3084 3086 3088 3090 3093 3095 3098 3100 3102 3104 3105 3106 3108 3109 3111 3113 3114 3116 3118 3119 3120 3122 3123 3124 3124 3125 3126 3127 3128 3129 3130 3131 3132 3134 3134 3135 3135 3136 3136 3137 3138 3140 3140 3141 3142 3143 3144
3067 3067 3067 3067 3068 3070 3070 3071 3071 3071 3073 3074 3073 3074 3076 3078 3080 3083 3085 3087 3090 3093 3095 3098 3100 3102 3103 3105 3106 3108 3110 3111 3113 3115 3116 3117 3119 3120 3121 3122 3122 3123 3124 3125 3126 3127 3128 3129 3130 3131 3132 3133 3134 3134 3134 3135 3136 3137 3138 3139 3140 3141 3142
3065 3063 3063 3064 3064 3066 3066 3067 3066 3067 3068 3069 3070 3071 3073 3075 3077 3079 3082 3085 3088 3091 3093 3096 3098 3100 3101 3103 3105 3106 3108 3110 3112 3114 3115 3116 3117 3118 3119 3120 3121 3121 3122 3123 3124 3125 3126 3127 3128 3128 3130 3131 3132 3132 3133 3133 3133 3135 3135 3136 3138 3139 3140
3062 3061 3061 3061 3061 3061 3062 3063 3063 3063 3064 3065 3066 3068 3070 3072 3074 3077 3080 3083 3085 3088 3091 3094 3096 3098 3099 3101 3103 3105 3107 3109 3111 3112 3114 3115 3116 3117 3117 3118 3119 3119 3120 3121 3122 3123 3124 3125 3125 3126 3127 3128 3129 3130 3131 3131 3132 3133 3134 3134 3135 3137 3138
3060 3059 3059 3058 3058 3058 3058 3058 3058 3059 3060 3061 3062 3064 3067 3069 3072 3075 3078 3081 3083 3086 3089 3092 3094 3096 3098 3100 3102 3104 3106 3108 3110 3111 3113 3114 3115 3116 3116 3117 3117 3117 3118 3119 3119 3120 3122 3122 3123 3124 3125 3126 3127 3128 3129 3129 3130 3131 3132 3133 3134 3135 3136
3058 3057 3057 3056 3056 3055 3055 3055 3055 3055 3057 3058 3059 3061 3065 3067 3070 3073 3076 3078 3081 3084 3087 3090 3092 3094 3096 3099 3101 3103 3105 3107 3109 3110 3111 3113 3114 3114 3114 3115 3115 3116 3116 3117 3117 3118 3119 3120 3121 3122 3123 3124 3125 3126 3127 3127 3128 3129 3130 3131 3132 3133 3134
3058 3056 3055 3055 3055 3054 3053 3052 3052 3054 3056 3057 3057 3059 3063 3065 3068 3072 3074 3077 3080 3083 3085 3088 3090 3093 3095 3098 3100 3102 3104 3106 3107 3108 3110 3111 3112 3112 3112 3113 3113 3114 3114 3114 3115 3116 3117 3118 3119 3120 3121 3122 3123 3124 3124 3125 3126 3127 3128 3128 3129 3131 3131
3056 3055 3054 3053 3053 3052 3052 3051 3052 3053 3055 3056 3056 3058 3061 3065 3068 3071 3073 3076 3079 3081 3083 3086 3089 3091 3094 3096 3098 3100 3102 3104 3105 3107 3108 3109 3110 3110 3110 3110 3111 3111 3111 3112 3112 3113 3114 3116 3117 3118 3119 3120 3120 3121 3122 3123 3124 3125 3125 3126 3127 3128 3129
3055 3054 3053 3053 3051 3050 3049 3049 3051 3053 3054 3054 3056 3058 3061 3065 3068 3071 3073 3075 3077 3079 3081 3084 3087 3090 3092 3095 3096 3098 3100 3101 3103 3104 3106 3107 3108 3108 3108 3109 3109 3109 3109 3110 3110 3111 3112 3114 3115 3116 3117 3117 3118 3119 3120 3121 3121 3122 3122 3124 3125 3126 3126
3057 3055 3055 3054 3052 3049 3048 3049 3051 3053 3054 3055 3056 3058 3061 3065 3067 3070 3072 3074 3076 3078 3080 3083 3086 3089 3091 3093 3094 3096 3097 3099 3100 3102 3103 3104 3105 3105 3106 3107 3107 3107 3107 3108 3108 3109 3111 3112 3113 3114 3115 3115 3116 3117 3118 3119 3119 3119 3120 3121 3122 3123 3124
3058 3057 3056 3055 3054 3053 3052 3053 3054 3055 3055 3056 3057 3059 3061 3062 3064 3067 3070 3072 3074 3076 3078 3081 3084 3087 3089 3091 3092 3094 3095 3097 3098 3099 3100 3101 3102 3102 3103 3104 3105 3105 3106 3106 3107 3108 3109 3110 3110 3111 3112 3113 3114 3115 3115 3116 3117 3118 3118 3119 3120 3121 3121
3060 3059 3058 3056 3056 3055 3056 3056 3056 3056 3057 3057 3058 3060 3062 3064 3065 3067 3068 3070 3072 3075 3077 3079 3082 3084 3087 3088 3090 3092 3093 3095 3096 3097 3097 3098 3098 3099 3100 3101 3102 3103 3103 3104 3105 3106 3107 3108 3109 3109 3110 3111 3111 3112 3113 3114 3114 3115 3116 3116 3117 3117 3118
3060 3059 3058 3058 3057 3057 3057 3057 3057 3058 3058 3059 3060 3062 3063 3064 3066 3067 3068 3070 3072 3074 3076 3078 3080 3082 3084 3086 3087 3089 3090 3092 3093 3094 3094 3095 3095 3096 3098 3099 3100 3100 3101 3102 3103 3104 3105 3106 3106 3107 3108 3108 3109 3109 3110 3111 3112 3112 3113 3113 3114 3114 3114
3059 3058 3058 3057 3057 3057 3057 3058 3058 3058 3059 3060 3061 3062 3062 3063 3065 3066 3068 3070 3071 3073 3074 3076 3077 3079 3081 3082 3084 3085 3087 3088 3089 3090 3091 3092 3092 3093 3095 3096 3097 3099 3100 3101 3101 3102 3103 3104 3104 3105 3105 3106 3107 3107 3108 3109 3109 3110 3110 3111 3111 3111 3111
3057 3057 3056 3056 3056 3056 3056 3057 3057 3057 3058 3058 3060 3061 3062 3063 3064 3065 3067 3068 3070 3071 3072 3073 3075 3076 3078 3080 3081 3082 3084 3085 3086 3086 3087 3089 3091 3092 3093 3094 3096 3097 3098 3099 3100 3100 3101 3102 3102 3103 3103 3104 3104 3105 3106 3107 3107 3108 3108 3108 3108 3108 3108